www.pogodaiklimat.ru
ПОГОДА в Латробе
Время
и дата
22:35 05.02
22:55 05.02
23:15 05.02
23:35 05.02
23:55 05.02
00:15 06.02
00:35 06.02
00:55 06.02
01:15 06.02
01:35 06.02
01:55 06.02
02:15 06.02
02:35 06.02
02:55 06.02
03:15 06.02
03:35 06.02
03:55 06.02
04:15 06.02
04:35 06.02
04:55 06.02
05:15 06.02
05:35 06.02
05:55 06.02
06:15 06.02
06:35 06.02
06:47 06.02
07:47 06.02
08:47 06.02
09:47 06.02
10:47 06.02
11:47 06.02
12:50 06.02
13:50 06.02
14:50 06.02
15:45 06.02
16:47 06.02
17:47 06.02
18:47 06.02
19:47 06.02
20:47 06.02
21:47 06.02
22:15 06.02
22:35 06.02
22:55 06.02
23:15 06.02
23:35 06.02
23:55 06.02
00:15 07.02
Ветер
(напр.,м/с)
Видим. Явления Облачность Т
(С)
Тd
(С)
f
(%)
Тe
(С)
Тes
(С)
Комфортность P
(гПа)
Po
(гПа)
Тmin
(С)
Tmax
(С)
R
(мм)
R24
(мм)
S
(см)
ЮЗ 3 16 км 10/10 1410 м +7.0 +2.0 70 +4 +4 971.4
ЮЗ 3 16 км 10/10 1350 м +7.0 +1.0 66 +4 +4 971.4
ЮЗ 4 16 км 10/10 1350 м +8.0 +1.0 61 +5 +5 971.7
З 3
{9}
16 км 10/10 1290 м +8.0 0.0 57 +6 +6 971.7
З 4
{8}
16 км 10/10 1290 м +8.0 +1.0 61 +5 +5 972.1
З 3 16 км 10/10 1230 м +8.0 +1.0 61 +6 +6 972.1
З 3 16 км 10/10 1230 м +8.0 0.0 57 +6 +6 972.4
З 4 16 км 10/10 1110 м +7.0 0.0 61 +4 +4 972.4
З 2 16 км 10/10 1080 м +7.0 0.0 61 +5 +5 972.4
ЮЗ 3 16 км 10/10 1050 м +7.0 0.0 61 +4 +4 972.7
З 3 16 км 10/10 1020 м +7.0 0.0 61 +4 +4 972.7
ЮЗ 2 16 км 10/10 1470 м +6.0 +1.0 70 +4 +4 972.7
З 2 16 км 10/10 1500 м +6.0 0.0 65 +4 +4 972.7
штиль 0 16 км 10/10 1800 м +6.0 +1.0 70 +5 +5 972.7
штиль 0 16 км 10/10 1020 м +5.0 +1.0 75 +4 +4 973.0
Ю 2 16 км 8/8 1020 м +5.0 +1.0 75 +3 +3 973.4
ЮЗ 2 16 км 10/10 1500 м +5.0 +1.0 75 +3 +3 973.0
ЮЗ 2 16 км 10/10 1500 м +5.0 +1.0 75 +3 +3 973.4
штиль 0 16 км 10/10 900 м +6.0 +1.0 70 +5 +5 973.4
штиль 0 16 км 10/10 900 м +5.0 +1.0 75 +4 +4 973.4
З 3 16 км 10/10 900 м +6.0 +1.0 70 +3 +3 973.7
З 3 16 км 10/10 900 м +6.0 +1.0 70 +3 +3 974.0
СЗ 5 16 км 10/10 900 м +5.0 +1.0 75 +1 +1 974.3
СЗ 5 16 км 10/10 750 м +5.0 +1.0 75 +1 +1 974.7
СЗ 4 16 км слабые неопределенные осадки 10/10 690 m
[Cb]
+5.0 +1.0 75 +1 +1 975.0
СЗ 4
{8}
24 км 10/10 570 м +4.0 +1.0 81 0 0 975.3
З 5
{7}
24 км 10/10 600 м +4.0 0.0 75 -1 -1 976.6
СЗ 5
{7}
14 км 10/10 540 м +3.0 0.0 81 -2 -2 977.6
СЗ 5 13 км 10/10 480 м +3.0 0.0 81 -2 -2 978.6
СЗ 4
{7}
13 км 10/10 360 м +2.0 0.0 87 -3 -3 979.9
СЗ 4 13 км 10/10 330 м +2.0 -1.0 80 -3 -3 980.5
СЗ 4 16 км 10/10 450 м +1.0 -2.0 80 -4 -4 980.2
штиль 0 16 км 10/10 480 м +1.0 -2.0 80 0 0 980.2
З 4 16 км 10/10 510 м +1.0 -2.0 80 -4 -4 980.2
штиль 0 16 км 10/10 570 м +1.0 -3.0 75 0 0 980.5
штиль 0 16 км 10/10 600 м +1.0 -3.0 75 0 0 981.2
штиль 0 16 км 10/10 630 м +1.0 -3.0 75 0 0 981.8
штиль 0 16 км 10/10 600 м +1.0 -3.0 75 0 0 982.1
штиль 0 16 км 10/10 600 м +1.0 -3.0 75 0 0 982.1
штиль 0 16 км 10/10 510 м 0.0 -3.0 80 -1 -1 981.5
штиль 0 16 км 10/10 510 м 0.0 -3.0 80 -1 -1 981.5
В 3 16 км 10/10 510 м 0.0 -4.0 74 -4 -4 981.2
штиль 0 16 км 10/10 510 м 0.0 -3.0 80 -1 -1 981.2
штиль 0 16 км 10/10 510 м 0.0 -3.0 80 -1 -1 981.5
штиль 0 16 км 10/10 510 м 0.0 -4.0 74 -1 -1 981.8
штиль 0 16 км 5/5 510 м -1.0 -3.0 86 -2 -2 981.8
штиль 0 16 км ясно -1.0 -4.0 80 -2 -2 981.5
штиль 0 16 км ясно -2.0 -4.0 86 -3 -3 981.8
Местоположение метеостанции Arnold Palmer Regional Airport: широта 40.2800 долгота -79.4000 высота над уровнем моря 361 м.
В архиве по умолчанию представлена погода в Латробе за последние 1-2 суток. Обновление информации о фактической погоде в базе происходит ежечасно! Архивные данные за месяц целиком и за предыдущие месяцы Вы можете получить, выбрав интересующий диапазон дат из раскрывающегося списка и нажав кнопку "Ввод!".
Внимание! Архив погоды МЕТАР в базе сайта по станциям, не включенным в климатический монитор, хранится не более 60 дней. Нет смысла пытаться выбрать более раннюю дату.
*Определитесь, кто Вы:
Внимание! Время в таблицах - местное (без учета летнего времени). Для получения всемирного времени необходимо вычесть поправку, которая равна -5 ч.
Смотрите также архив погоды в соседних городах и на ближайших метеорологических станциях:
Партнеры нашего сайта:      
Пояснения к столбцам:
  • Ветер - указаны скорость ветра в м/с - средняя за 10 мин, порывы в срок и между сроками (в фигурных скобках) и направление, откуда дует ветер: С - северный,
  • СВ - северо-восточный, В - восточный, ЮВ - юго-восточный, Ю - южный, ЮЗ - юго-западный, З - западный, СЗ - северо-западный.
  • Видимость - горизонтальная дальность видимости в метрах или километрах. При видимости от 1 до 10 км при отсутствии осадков обычно наблюдается дымка, при ухудшении видимости до 1 км и менее - туман. В сухую погоду видимость может ухудшаться дымом, пылью или мглою.
  • Явления - указаны атмосферные явления, наблюдавшиеся в срок или в последний час перед сроком; фигурными скобками обозначены явления, наблюдавшиеся между сроками (за 1-3 часа до срока); квадратными скобками обозначены град или гололедные отложения с указанием их диаметра в мм.
  • Облачность - указаны через наклонную черту общая и нижняя облачность в баллах и высота нижней границы облаков в метрах; квадратными скобками обозначены формы облаков: Ci - перистые, Cs - перисто-слоистые, Cc - перисто-кучевые, Ac - высококучевые, As - высокослоистые, Sc - слоисто-кучевые, Ns - слоисто-дождевые, Cu - кучевые, Cb - кучево-дождевые. Подробнее классификацию облаков см. в Атласе облаков (PDF).
  • T - Температура воздуха - температура, измеренная на высоте 2 м над землей.
  • Td - Температура точки росы - температура, при понижении до которой содержащийся в воздухе водяной пар достигнет насыщения.
  • f - Относительная влажность воздуха - влажноcть воздуха, измеренная на высоте 2 м над землей.
  • Te - Эффективная температура - температура, которую ощущает одетый по сезону человек в тени. Характеристика душности погоды. При расчете учитывается влияние влажности воздуха и скорости ветра на теплоощущения человека.
  • Tes - Эффективная температура на солнце - температура, которую ощущает человек, с поправкой на солнечный нагрев. Характеристика знойности погоды. Зависит от высоты солнца над горизонтом, облачности и скорости ветра. Ночью, в пасмурную погоду, а также при ветре 12 м/с и более поправка равна нулю.
  • P - Атмосферное давление - приведенное к уровню моря атмосферное давление.
  • Po - Атмосферное давление - измеренное на уровне метеостанции атмосферное давление.
  • Tmin - Минимальная температура - минимум температуры воздуха на высоте 2 м над землей.
  • Tmax - Максимальная температура - максимум температуры воздуха на высоте 2 м над землей.
  • R - Количество осадков - Количество выпавших осадков за период времени, мм. При наведении курсора мыши на число - период времени, за который выпало указанное количество осадков.
  • R24 - Количество осадков - Количество выпавших осадков за 24 часа, мм.
  • S - Снежный покров - Высота снежного покрова, см. При наведении курсора мыши на число - состояние снежного покрова и степень покрытия местности в баллах.